Regional Weather Roundup
Issued by NWS

Home | Current Version | Previous Version | Text Only | Print | Product List | Glossary Off
Versions: 1 2 3 4 5 6 7 8 9 10 11 12 13 14 15 16 17 18 19 20 21 22 23 24 25 26 27 28 29 30 31 32 33 34 35 36 37 38 39 40 41 42 43 44 45 46 47 48 49 50

000
ASUS43 KMKX 301859
RWRWI

WISCONSIN REGIONAL WEATHER ROUNDUP
NATIONAL WEATHER SERVICE MILWAUKEE/SULLIVAN WI
100 PM CST FRI JAN 30 2015

NOTE: "FAIR" INDICATES FEW OR NO CLOUDS BELOW 12,000 FEET WITH NO
SIGNIFICANT WEATHER AND/OR OBSTRUCTIONS TO VISIBILITY.

WIZ001-002-006>008-014>016-023>028-302000-
NORTHWEST WISCONSIN

CITY           SKY/WX    TMP DP  RH WIND       PRES   REMARKS
SUPERIOR ARPT  PTSUNNY   14   3  60 SW5       30.43F WCI   7
ASHLAND        CLOUDY    16   3  56 W8        30.42F WCI   5
HAYWARD        CLOUDY    14   2  58 VRB6      30.40F WCI   5
SIREN          CLOUDY    13   4  65 W8        30.43F WCI   2
CUMBERLAND     PTSUNNY   12   3  67 SW6       30.42F WCI   3
RICE LAKE      PTSUNNY   12   2  64 S5        30.45F WCI   4
CHETEK         PTSUNNY   13   3  64 CALM      30.45F
LADYSMITH      MOSUNNY   15   5  65 SW6       30.44F WCI   6
EAU CLAIRE     NOT AVBL
MENOMONIE      PTSUNNY   16   6  62 SE6       30.47F WCI   8
NEW RICHMOND   PTSUNNY   18   8  64 SW7       30.45F WCI   8
OSCEOLA        PTSUNNY   17   7  64 S7        30.48F WCI   8
$$

WIZ003>005-009-010-017-018-302000-
NORTH CENTRAL WISCONSIN

CITY           SKY/WX    TMP DP  RH WIND       PRES   REMARKS
MANITOWISH WTR MOSUNNY   13   2  62 SW9       30.35F WCI   1
ARBOR VITAE    MOSUNNY   17   6  62 S7        30.36F WCI   7
WOODRUFF       MOSUNNY   17   6  62 S7        30.36F WCI   7
RHINELANDER    MOSUNNY   15   4  61 W6        30.36F WCI   6
EAGLE RIVER    SUNNY     14   1  56 W6        30.35F WCI   5
LAND O LAKES   SUNNY     16   4  58 S6        30.35F WCI   8
PHILLIPS       PTSUNNY   14   3  62 SW8       30.38F WCI   3
TOMAHAWK       PTSUNNY   15   3  59 CALM      30.39F
MEDFORD        CLOUDY    13   4  66 SW6       30.40F WCI   4
MERRILL        PTSUNNY   15   4  61 SW6       30.41F WCI   7
$$

WIZ029-030-035-036-043>047-302000-
CENTRAL WISCONSIN

CITY           SKY/WX    TMP DP  RH WIND       PRES   REMARKS
WAUSAU         PTSUNNY   16   4  59 SW7       30.40F WCI   6
MOSINEE        SUNNY     16   7  67 MISG      30.42F
MARSHFIELD     PTSUNNY   16   5  62 W7        30.42F WCI   6
STEVENS POINT  PTSUNNY   16   3  57 SW3       30.45F
WAUPACA        PTSUNNY   23   6  49 CALM      30.47F
WAUTOMA        NOT AVBL
WISC RAPIDS    PTSUNNY   19   4  51 SW8       30.46F WCI   9
CAMP DOUGLAS   NOT AVBL
$$

WIZ011>013-019>022-031-037>040-048>050-302000-
NORTHEAST WISCONSIN

CITY           SKY/WX    TMP DP  RH WIND       PRES   REMARKS
ANTIGO         CLOUDY    14   5  67 SW7       30.39F WCI   4
SHAWANO        PTSUNNY   20   6  53 SW5       30.47F WCI  14
OCONTO         MOSUNNY   19   4  54 MISG      30.47F
STURGEON BAY   MOSUNNY   16   1  53 W3        30.48F
GREEN BAY      PTSUNNY   19   7  59 W3        30.47F
MANITOWOC      NOT AVBL
APPLETON       PTSUNNY   19   5  53 VRB5      30.46F WCI  13
CLINTONVILLE   CLOUDY    19   7  58 SW3       30.47F
OSHKOSH        MOSUNNY   19   7  59 CALM      30.46F
$$

WIZ032>034-041-042-053>061-302000-
SOUTHWEST WISCONSIN

CITY           SKY/WX    TMP DP  RH WIND       PRES   REMARKS
LA CROSSE      MOSUNNY   22   7  52 S8        30.49F WCI  12
SPARTA         PTSUNNY   20   6  55 W6        30.49F WCI  13
VIROQUA        MOSUNNY   19   8  61 CALM      30.46F
BOSCOBEL       FAIR      23   8  52 S7        30.51F WCI  15
PRAIRIE DU CHI SUNNY     23   6  49 CALM      30.53F
PLATTEVILLE    SUNNY     22  12  65 SW3       30.48F
$$

WIZ056-057-062-063-064-067-068-302000-
SOUTH CENTRAL WISCONSIN

CITY           SKY/WX    TMP DP  RH WIND       PRES   REMARKS
REEDSBURG      PTSUNNY   20   9  61 W6        30.48F WCI  12
BARABOO/DELLS  MOSUNNY   20   8  60 CALM      30.47F
LONE ROCK      NOT AVBL
MINERAL POINT  MOSUNNY   23  10  58 SW5       30.46F WCI  17
MADISON        PTSUNNY   23   8  52 CALM      30.47F
MIDDLETON      MOSUNNY   24   9  52 CALM      30.47F
WATERTOWN      SUNNY     22   8  56 CALM      30.48F
MONROE         MOSUNNY   25  12  58 S3        30.47F
JANESVILLE     MOSUNNY   25   9  50 VRB3      30.49F
$$

WIZ051-052-058>065-066-070>072-302000-
SOUTHEAST WISCONSIN

CITY           SKY/WX    TMP DP  RH WIND       PRES   REMARKS
MILWAUKEE      MOSUNNY   26   6  42 CALM      30.48F
WAUKESHA       MOSUNNY   21   7  53 W8        30.49F WCI  12
MILWAUKEE/TIMM SUNNY     25   3  39 CALM      30.49F
RACINE         MOSUNNY   26   9  48 VRB5      30.49F WCI  20
BURLINGTON     SUNNY     23   8  50 SW3       30.49F
KENOSHA        SUNNY     25   8  48 W5        30.48F WCI  19
FOND DU LAC    MOSUNNY   22   6  50 CALM      30.46F
SHEBOYGAN      PTSUNNY   22   8  55 VRB3      30.47F
WEST BEND      SUNNY     23   5  46 SW6       30.47F WCI  16
JUNEAU         SUNNY     21   9  59 SW6       30.48F WCI  13
$$

LSZ147-162-302000-
LAKE SUPERIOR

STATION/POSITION TIME  TEMP    WIND        PRES    WAVE
                       AIR SEA DIR/SP/G            HT/PER
                 (UTC) (F)     (DEG/KT/KT) (MB)    (FT/S)
DEVILS ISLAND    1800   14     230/ 11/ 13 1032.3F
PORT WING        1800   13     180/  3/  9 1031.5
SAXON HARBOR     1800   17     200/  4/  9 1030.8F
$$

LMZ867-665-643>646-302000-
LAKE MICHIGAN

STATION/POSITION TIME  TEMP    WIND        PRES    WAVE
                       AIR SEA DIR/SP/G            HT/PER
                 (UTC) (F)     (DEG/KT/KT) (MB)    (FT/S)
NORTHPORT PIER   1812   15     310/  8/ 14 1032.2F
SISTER BAY       1643   20     320/  9/ 10   N/A
KEWAUNEE LAKESHO 1800   17     300/  4/  8 1032.1F
SHEBOYGAN LAKESH 1800   18      50/  6/  7 1034.3F
PORT WASHINGTON  1840   22     150/  4/  7 1033.5F
MILWAUKEE LAKESH 1800   22      70/  3/  4   N/A
KENOSHA   LAKESH 1800   22      60/  6/  9 1033.2F
$$

TC  - TEMPERATURE IN CELSIUS
VSB - VISIBILITY IN STATUTE MILES
WCI - WIND CHILL INDEX
HX  - HEAT INDEX



USA.gov is the U.S. government's official web portal to all federal, state and local government web resources and services.